User: anonymous   Login
Location: Albany
(35.0000°S, 118.0000°E)
Time: 10:46:25
(UTC-05:00)
Language:

TRMM - Orbit

View from above orbital plane
View from above orbital plane
View from above satellite
View from above satellite

Ground track
Ground track

The orbit data is extracted from the following two-line orbital elements,

1 25063U 97074A   14331.85344037  .00051266  00000-0  51906-3 0  8093
2 25063 034.9532 133.4133 0002466 022.2821 122.5663 15.64136564970245
Epoch (UTC): 27 November 2014 20:28:57
Eccentricity: 0.0002466
inclination: 34.9532°
perigee height: 374 km
apogee height: 377 km
right ascension of ascending node: 133.4133°
argument of perigee: 22.2821°
revolutions per day: 15.64136564
mean anomaly at epoch: 122.5663°
orbit number at epoch: 97024

The dashed part of the orbit path shows where the satellite is in the earth's shadow,  

DLR